Yakima, WA

8:20 AM PDT on May 29, 2017 (GMT -0700)
Yakima Air Term-McAllister

Weather History for KYKM - June, 2013

Change the Weather History Date:

Sunday, June 2, 2013

  Actual Average Record
Temperature  
Mean Temperature 61 °F 61 °F  
Max Temperature 76 °F 77 °F 95 °F (2007)
Min Temperature 45 °F 46 °F 30 °F (1976)
Degree Days  
Heating Degree Days 4 5  
Month to date heating degree days 5 10  
Since 1 June heating degree days 5 10  
Since 1 July heating degree days 5152 5954  
Cooling Degree Days 0 1  
Month to date cooling degree days 0 2  
Year to date cooling degree days 52 22  
Since 1 June cooling degree days 0 2  
Growing Degree Days 10 (Base 50)    
Moisture  
Dew Point 41 °F    
Average Humidity 54    
Maximum Humidity 82    
Minimum Humidity 25    
Precipitation  
Precipitation 0.00 in 0.02 in 0.64 in (1988)
Month to date precipitation 0.00 0.05  
Year to date precipitation 3.78 3.72  
Snow  
Snow 0.00 in 0.00 in 0.00 in (2002)
Month to date snowfall 0.0 0.0  
Year to date snowfall 1.1 8.6  
Since 1 July snowfall 15.3 21.6  
Snow Depth 0.00 in    
Sea Level Pressure  
Sea Level Pressure 29.95 in    
Wind  
Wind Speed 14 mph (NW)    
Max Wind Speed 28 mph    
Max Gust Speed 39 mph    
Visibility 10 miles    
Events      
T = Trace of Precipitation, MM = Missing Value Source: NWS Daily Summary

Daily Weather History Graph

Daily Weather History Graph

Search for Another Location

Airport or City:

Trip Planner

Search our weather history database for the weather conditions in past years. The results will help you decide how hot, cold, wet, or windy it might be!

Date:

Astronomy

Jun. 02, 2013 Rise Set
Actual Time 5:11 AM PDT 8:48 PM PDT
Civil Twilight 4:33 AM PDT 9:27 PM PDT
Nautical Twilight 3:42 AM PDT 10:18 PM PDT
Astronomical Twilight 2:34 AM PDT 11:28 PM PDT
Moon 2:00 AM PDT (6/2) 3:07 PM PDT (6/2)
Length of Visible Light 16h 53m
Length of Day
15h 37m
Waning Crescent, 30% of the Moon is Illuminated
Jun 2
Waning Crescent
Jun 8
New
Jun 16
First Quarter
Jun 23
Full
Jun 29
Last Quarter

Hourly Weather History & Observations

Time (PDT) Temp. Dew Point Humidity Pressure Visibility Wind Dir Wind Speed Gust Speed Precip Events Conditions
12:53 AM 55.0 °F 45.0 °F 69% 29.97 in 10.0 mi North 4.6 mph - N/A   Clear
1:53 AM 57.0 °F 44.1 °F 62% 29.96 in 10.0 mi WNW 8.1 mph - N/A   Clear
2:53 AM 57.9 °F 44.1 °F 60% 29.95 in 10.0 mi NNW 4.6 mph - N/A   Clear
3:53 AM 48.0 °F 42.1 °F 80% 29.95 in 10.0 mi WSW 3.5 mph - N/A   Clear
4:53 AM 46.9 °F 41.0 °F 80% 29.94 in 10.0 mi NW 4.6 mph - N/A   Clear
5:53 AM 51.1 °F 42.1 °F 71% 29.95 in 10.0 mi WNW 6.9 mph - N/A   Clear
6:53 AM 62.1 °F 44.1 °F 52% 29.95 in 10.0 mi NNW 9.2 mph - N/A   Clear
7:53 AM 64.0 °F 43.0 °F 46% 29.96 in 10.0 mi NW 15.0 mph - N/A   Partly Cloudy
8:53 AM 66.9 °F 43.0 °F 42% 29.95 in 10.0 mi NW 19.6 mph 28.8 mph N/A   Scattered Clouds
9:53 AM 69.1 °F 41.0 °F 36% 29.95 in 10.0 mi NW 16.1 mph 24.2 mph N/A   Scattered Clouds
10:53 AM 72.0 °F 39.9 °F 31% 29.94 in 10.0 mi NNW 20.7 mph 25.3 mph N/A   Scattered Clouds
11:53 AM 72.0 °F 41.0 °F 33% 29.94 in 10.0 mi NW 18.4 mph 26.5 mph N/A   Mostly Cloudy
12:53 PM 73.0 °F 37.9 °F 28% 29.93 in 10.0 mi NNW 18.4 mph 26.5 mph N/A   Scattered Clouds
1:53 PM 73.9 °F 39.9 °F 29% 29.92 in 10.0 mi NW 16.1 mph 25.3 mph N/A   Clear
2:53 PM 75.0 °F 37.9 °F 26% 29.91 in 10.0 mi NW 18.4 mph 25.3 mph N/A   Scattered Clouds
3:53 PM 75.0 °F 37.0 °F 25% 29.92 in 10.0 mi NW 19.6 mph - N/A   Scattered Clouds
4:53 PM 73.9 °F 39.0 °F 28% 29.92 in 10.0 mi NW 20.7 mph 32.2 mph N/A   Clear
5:53 PM 72.0 °F 39.0 °F 30% 29.93 in 10.0 mi NW 21.9 mph 31.1 mph N/A   Partly Cloudy
6:53 PM 70.0 °F 37.9 °F 31% 29.94 in 10.0 mi NNW 26.5 mph 33.4 mph N/A   Partly Cloudy
7:53 PM 66.9 °F 37.9 °F 34% 29.95 in 10.0 mi NW 21.9 mph 31.1 mph N/A   Partly Cloudy
8:53 PM 64.9 °F 39.0 °F 39% 29.96 in 10.0 mi NW 18.4 mph 31.1 mph N/A   Partly Cloudy
9:53 PM 63.0 °F 39.9 °F 43% 29.99 in 10.0 mi NNW 11.5 mph - N/A   Clear
10:53 PM 61.0 °F 41.0 °F 48% 29.99 in 10.0 mi WNW 9.2 mph - N/A   Clear
11:53 PM 59.0 °F 39.9 °F 49% 30.00 in 10.0 mi NNW 5.8 mph - N/A   Clear